Presure
174 170 143 197 199 192 188 182 193 186 171 105 111 189 160 122 147 73 197 140 135 84 158 162 92 197 86 108 166 127 178 171 159 180 187 186 186 187 179 173 181 184 163 171
170 163 172 189 138 153 101 192 180 157 168 168 113 179 164 184 84 119 184 148 82 175 173 150 119 209 191 142 155 187 180 97 180 175 154 174 173 175 183 118 111 162 179 177
192 163 149 177 194 179 117 156 163 145 184 101 110 103 127 162 141 131 151 155 151 187 120 131 198 201 146 188 151 130 90 179 175 172 173 174 178 175 175 180 178 163 86 145
150 170 154 168 149 198 107 199 164 120 103 147 174 172 170 160 163 134 163 175 172 187 183 181 154 143 152 206 212 123 87 122 181 183 179 128 184 185 90 177 179 179 150 185
162 215 184 168 173 178 126 195 185 143 104 108 173 95 176 179 167 171 171 130 164 157 165 170 181 103 137 93 183 92 94 94 184 176 182 109 182 189 189 184 186 188 179 175
181 157 171 206 184 188 215 190 136 167 185 121 194 203 150 156 114 114 141 117 166 167 172 143 181 119 185 171 174 81 170 101 185 197 114 192 188 176 178 129 186 174 170 172
115 182 169 219 198 184 188 222 188 196 196 188 167 108 174 149 180 172 180 190 142 183 180 147 172 167 180 76 184 75 85 133 94 204 144 173 177 177 188 180 182 180 154 172
166 204 178 202 174 166 188 196 205 193 208 206 197 123 178 165 136 173 89 179 174 184 114 179 180 179 89 181 187 181 77 163 102 200 105 119 184 177 176 131 172 123 172 141
207 180 183 174 208 198 208 160 120 186 209 201 202 190 103 188 186 169 169 216 188 86 174 193 178 100 187 174 168 193 160 82 90 164 155 198 102 196 140 200 93 92 98 187
208 207 197 185 203 176 198 200 169 200 207 143 184 142 169 204 178 218 189 100 171 149 76 184 187 178 125 183 193 159 152 89 135 154 107 177 153 141 145 165 89 109 144 203
201 208 188 196 196 193 193 194 207 177 210 171 145 139 162 228 161 98 191 198 198 93 178 205 188 134 169 185 158 98 87 176 191 170 139 184 184 126 183 169 210 204 171 78
196 197 207 194 202 214 200 176 207 177 173 206 182 187 139 184 234 177 241 156 187 253 246 193 115 194 130 245 189 78 80 116 113 191 119 158 177 181 190 148 178 206 179 124
204 196 195 222 225 213 215 224 216 240 242 195 250 258 255 247 242 93 69 198 176 213 71 132 89 197 247 250 114 84 215 205 225 217 205 188 122 113 191 202 196 163 193 185
210 205 203 220 216 215 220 225 224 259 260 255 252 252 257 253 220 243 216 196 232 231 211 126 241 259 76 83 176 170 247 125 273 263 205 200 194 156 176 90 202 125 194 170
218 267 241 260 252 266 294 290 272 285 233 232 239 208 219 299 283 259 205 264 267 263 258 159 257 212 85 214 270 268 278 271 266 254 157 252 250 241 226 198 195 191 163 195
255 261 261 266 265 260 274 243 200 191 254 216 241 262 196 202 202 237 251 221 254 290 291 151 260 269 272 283 256 259 248 218 82 255 97 88 96 243 245 276 189 203 206 170
270 268 256 245 275 274 280 230 111 124 125 126 246 236 229 232 237 251 262 269 265 255 186 177 193 65 213 220 216 83 270 187 248 247 260 108 92 246 248 108 243 238 73 118
255 247 250 246 307 294 289 286 284 274 262 259 265 265 266 260 269 273 276 276 273 282 291 265 258 274 277 316 319 227 252 253 185 222 225 243 106 265 257 210 256 91 181 231
318 258 307 302 280 245 251 335 319 312 297 288 297 318 315 297 308 310 262 263 262 259 263 273 286 277 259 261 223 281 311 78 225 244 206 256 94 263 262 262 203 256 267 272
302 299 298 301 305 314 323 310 300 299 303 303 308 306 280 281 287 294 292 287 284 292 286 285 281 286 291 292 80 300 264 289 308 323 265 250 254 254 244 249 77 122 244 251
287 289 284 279 285 291 292 293 292 284 286 294 293 290 284 281 285 290 288 284 285 285 283 285 287 288 285 285 186 292 295 297 292 290 268 274 259 291 281 261 263 261 195 252
291 284 277 277 282 286 280 279 277 285 289 290 296 302 348 368 363 363 364 359 352 346 344 345 349 356 368 382 324 309 301 298 297 288 294 219 273 231 267 286 268 265 273 251
425 410 386 384 391 359 363 400 399 395 396 404 398 337 330 331 328 336 375 397 404 401 403 403 400 332 316 320 332 346 363 370 151 346 328 317 309 257 281 276 270 282 271 267
427 413 408 408 410 384 392 381 329 319 311 307 307 323 401 399 399 389 387 386 385 386 388 395 395 397 399 395 400 398 416 348 349 340 340 247 339 371 349 331 284 273 269 275
317 311 297 303 306 296 297 297 299 297 333 350 374 339 326 349 348 378 381 377 376 377 378 379 384 389 395 396 399 391 388 403 419 404 384 379 335 335 331 342 338 328 297 277
291 212 290 300 136 234 66 74 365 368 368 368 364 359 356 355 271 350 351 347 357 374 379 391 449 207 464 463 378 189 188 190 392 397 388 407 362 377 348 341 320 316 343 330
Wind_Speed
73 73 61 65 66 66 60 65 61 66 67 53 57 47 68 41 50 43 50 50 48 46 53 56 55 47 53 39 53 54 54 56 54 58 58 58 60 61 58 54 56 61 62 63
71 78 72 75 63 67 54 67 66 60 68 62 58 59 51 50 37 53 63 57 48 59 55 50 39 45 48 49 56 55 54 36 59 60 54 63 63 63 62 45 53 63 62 63
70 75 72 67 76 78 63 64 68 69 71 51 61 55 70 71 72 62 64 62 65 68 39 46 57 54 51 59 53 61 46 61 63 65 66 67 68 66 68 68 67 66 33 70
86 90 86 85 67 79 62 78 60 68 52 62 73 65 68 76 84 69 68 70 60 69 73 67 53 46 64 59 58 61 45 46 66 67 69 63 71 71 58 70 70 71 68 73
87 64 89 95 97 95 70 80 88 73 62 63 79 58 64 63 80 79 81 69 87 70 73 75 78 57 68 42 60 41 47 36 68 68 69 50 70 70 73 73 72 73 74 76
85 70 92 79 91 94 84 85 65 75 92 67 73 72 76 88 24 47 66 53 90 93 93 71 83 66 88 79 70 29 60 44 70 70 50 72 71 73 73 54 76 76 77 79
70 89 101 87 87 100 98 98 101 94 95 93 71 67 76 78 76 87 89 86 63 95 98 73 85 72 85 30 86 30 40 49 35 72 55 74 74 69 73 73 79 80 71 77
110 80 94 91 107 80 102 90 93 108 95 94 92 61 81 90 75 84 38 92 98 94 38 100 97 95 45 92 93 86 32 58 41 77 47 58 73 68 74 57 80 43 85 61
94 95 96 109 102 100 102 99 55 114 116 107 93 101 64 81 87 98 103 94 102 32 88 97 92 50 102 84 77 101 82 42 50 74 71 86 46 82 64 84 41 45 50 87
113 111 89 106 104 110 104 108 110 123 131 88 108 88 105 100 91 123 108 56 90 83 38 104 105 105 77 98 102 81 81 47 69 86 54 86 82 80 83 90 44 57 70 95
119 121 109 98 114 117 120 122 123 124 129 108 83 92 102 113 104 42 110 113 113 40 110 104 104 64 97 109 69 55 48 99 107 80 64 103 103 73 98 93 102 109 83 28
124 111 119 100 110 128 110 130 130 129 118 123 118 122 72 117 119 116 114 85 108 111 111 112 68 116 56 102 120 38 39 79 71 113 64 95 99 102 110 91 92 107 103 63
143 126 112 150 145 130 137 150 138 144 141 130 147 139 126 131 129 44 35 122 86 109 43 62 34 113 115 110 53 63 118 124 116 128 128 118 58 65 117 122 118 99 115 105
156 139 138 151 139 134 143 148 127 132 131 136 139 141 133 133 134 135 128 122 119 122 124 60 125 120 39 50 88 90 112 62 101 101 102 103 122 97 110 39 124 76 117 109
157 143 150 138 141 133 126 124 121 119 107 121 124 105 107 123 129 130 119 123 123 123 122 83 119 98 63 98 112 105 96 95 98 101 76 97 101 113 122 128 123 117 98 121
136 135 132 131 123 130 124 110 92 100 115 111 112 115 104 103 106 107 108 101 107 111 107 64 98 97 100 104 100 100 104 105 41 103 65 50 58 113 113 100 110 123 138 111
130 131 128 126 129 135 130 98 51 55 60 65 116 110 102 101 101 104 109 113 107 98 76 68 89 18 99 98 100 40 104 91 113 112 114 59 62 112 114 48 107 107 35 59
131 130 128 121 125 130 122 123 123 121 119 119 124 124 123 115 116 120 119 119 118 118 115 102 100 96 91 94 92 104 101 104 88 104 106 109 72 121 119 96 115 46 82 101
112 124 119 121 122 108 95 110 118 118 124 126 126 121 122 124 118 116 109 110 110 109 110 111 109 105 95 92 75 88 94 47 114 109 101 110 64 117 120 117 95 114 112 111
105 108 111 111 110 112 105 106 109 109 112 114 117 116 115 117 115 110 115 116 117 117 114 112 111 111 110 107 58 103 94 96 96 95 111 113 113 114 115 109 45 64 107 108
103 106 106 106 110 107 104 103 105 108 109 111 112 111 112 112 113 112 114 116 118 119 119 120 119 116 113 111 83 106 106 104 102 98 99 102 99 105 112 116 113 114 90 114
104 105 106 110 111 107 106 108 108 112 113 113 112 113 110 108 107 107 104 102 104 104 104 105 106 103 101 104 117 117 114 112 104 102 103 86 106 105 109 106 111 113 113 114
80 82 93 95 93 98 98 87 88 92 93 89 93 105 108 106 105 104 101 95 94 95 95 95 96 105 106 109 109 106 102 108 68 108 108 109 106 89 97 104 108 102 109 112
64 69 74 72 70 81 80 85 101 103 103 101 102 102 91 92 91 94 94 94 94 95 95 96 95 95 93 94 96 100 102 108 107 105 103 89 106 105 99 98 102 105 108 107
82 87 93 91 86 99 96 96 100 101 95 93 87 97 100 97 97 92 91 92 93 93 92 95 95 95 93 93 93 96 99 101 103 106 104 105 105 105 98 95 93 92 100 107
88 71 92 90 35 79 21 40 80 80 81 83 86 88 89 90 79 93 90 92 94 92 93 94 85 73 84 83 89 64 64 71 97 97 99 103 102 110 103 99 92 91 91 92
Wind_Direction
287 290 276 276 280 280 284 281 284 283 289 292 284 291 293 273 284 286 283 275 265 269 281 275 261 261 274 280 271 296 263 263 263 263 262 262 263 263 263 256 253 253 265 263
281 289 287 281 271 279 288 280 284 275 283 283 285 292 290 286 259 272 290 289 268 284 280 280 291 268 255 260 267 259 258 265 261 264 269 262 263 263 262 280 292 263 254 255
277 281 289 284 280 282 264 280 279 279 279 287 278 285 286 284 285 282 284 281 282 287 283 289 278 270 262 255 254 271 266 256 257 259 261 261 261 259 261 261 259 260 268 257
291 285 290 289 280 276 275 278 287 274 289 281 282 276 277 279 282 277 282 282 278 280 282 281 277 269 271 269 268 290 270 283 257 255 258 261 263 263 285 260 263 263 268 264
283 283 273 285 284 281 271 273 278 265 278 283 281 296 265 261 275 279 282 290 289 287 288 287 282 282 262 276 260 245 265 270 255 256 258 275 262 263 263 263 263 264 263 262
271 272 285 276 275 277 295 274 274 272 275 267 264 260 284 282 240 279 271 275 283 284 282 280 277 283 278 279 279 273 265 270 259 260 271 259 258 259 262 269 264 264 264 265
279 264 280 296 267 270 272 302 272 283 270 276 272 270 271 271 261 267 264 260 268 263 267 269 278 283 281 261 284 265 272 268 260 265 264 271 268 267 262 261 259 262 260 265
276 287 268 286 274 291 267 288 284 269 280 279 271 273 268 272 277 262 262 264 273 262 295 263 265 272 260 276 281 289 248 286 273 266 277 285 262 264 264 273 264 264 263 267
288 271 264 278 291 289 291 277 287 272 290 270 263 272 283 261 259 264 268 279 258 269 262 257 267 245 273 284 289 270 270 272 278 283 282 265 273 261 278 263 274 276 283 263
286 281 279 287 291 277 283 283 280 288 289 276 278 280 290 273 259 288 264 297 277 275 256 268 266 272 260 272 267 260 263 274 280 282 273 276 263 262 260 270 259 289 279 266
286 292 284 274 287 282 283 287 288 273 287 281 278 275 272 285 274 283 268 263 262 294 274 274 270 266 274 269 266 248 276 269 267 276 273 265 273 283 268 276 266 265 261 262
288 278 287 266 284 289 283 273 286 276 280 277 282 279 261 277 279 277 273 267 280 274 274 263 283 271 244 272 263 293 292 284 271 271 276 263 274 276 268 254 271 266 263 283
287 283 271 288 287 287 286 286 286 287 285 279 287 285 281 277 278 280 281 275 273 279 279 268 234 271 277 275 285 281 257 260 266 259 260 261 271 278 269 260 266 269 269 274
282 282 282 283 283 283 283 284 281 278 279 280 280 282 278 274 274 276 274 276 272 274 274 268 271 270 294 279 269 272 267 263 269 267 267 269 264 263 266 272 264 267 270 256
281 280 280 280 280 279 274 273 274 276 279 282 276 277 280 281 275 273 275 273 271 271 269 271 268 267 275 270 273 273 269 267 263 262 274 260 260 256 261 263 267 270 272 269
280 279 279 281 281 279 276 281 276 270 273 277 280 280 272 275 273 278 278 275 278 281 278 261 268 269 270 269 265 262 266 266 287 264 259 282 271 253 259 260 268 267 262 263
278 278 280 282 277 275 276 282 288 285 279 281 277 276 276 276 278 279 279 279 278 275 277 281 269 303 269 267 266 271 257 260 261 262 260 278 279 259 258 263 258 257 268 265
278 279 278 282 273 274 277 275 275 275 276 278 278 279 278 278 279 279 279 278 278 278 278 275 274 272 271 276 271 260 257 260 259 261 261 260 268 259 261 259 259 265 264 259
274 277 275 275 276 283 282 275 275 274 274 275 276 275 276 278 278 278 277 277 277 278 278 278 277 276 275 267 263 264 266 271 261 257 261 257 268 259 260 260 257 262 262 262
274 274 274 276 276 276 276 275 275 275 274 275 275 276 276 276 277 277 278 279 279 278 277 275 274 274 273 272 270 269 257 260 262 261 255 257 258 258 262 262 265 265 263 264
277 276 275 278 277 277 278 277 276 275 275 273 274 274 275 276 277 276 275 276 276 276 276 276 276 274 273 272 267 269 267 265 263 260 252 253 256 255 256 259 259 260 263 263
276 276 278 277 278 281 280 278 277 276 277 277 278 279 280 280 280 280 279 277 276 274 273 272 272 271 269 266 268 267 267 266 264 261 261 262 256 254 253 255 256 257 257 259
272 273 272 272 274 275 276 277 277 277 278 278 279 280 281 281 280 280 280 280 279 279 277 275 274 270 269 269 268 267 262 257 268 262 264 264 262 260 252 252 252 253 254 255
275 273 275 277 278 277 276 275 278 279 280 281 281 281 281 281 282 282 282 281 281 280 279 279 277 275 271 268 266 265 262 263 261 261 259 261 259 253 260 258 253 252 253 255
275 274 275 278 280 276 277 279 279 280 281 281 281 281 282 283 284 285 286 285 283 282 280 278 276 275 272 270 268 266 264 262 260 258 257 253 256 256 257 256 257 257 253 251
275 275 279 278 274 278 297 295 278 280 281 283 284 284 285 285 285 286 286 284 283 282 280 279 282 276 280 277 270 271 272 271 262 259 258 254 251 244 252 254 253 253 256 256